[[{"header":{"parameterUnit":"m.s-1","parameterCategory":1,"la1":30.2991,"la2":30.254,"lo1":-89.0895,"lo2":-89.0444,"dy":0.0017,"dx":0.0017,"nx":28,"ny":28,"refTime":"2024-03-09T09:00:00:Z","depth":0,"parameterNumber":2,"parameterNumberName":"U-component_of_WINDS"},"data":[0,0,0,0,0,0,0,0,0,0,0,0,0,0,0,0,0,0,0,0,0,0,0,0,0,0,0,0,0,0,0,0,0,0,0,0,0,0,0,0,0,0,0,0,0,0,0,0,0,0,0,0,0,0,0,0,0,0,2.4532,2.4532,0,2.4548,2.4548,2.4548,2.4538,2.4538,2.4537,2.4537,2.4553,2.4553,2.4554,0,0,0,0,0,0,0,0,0,0,0,0,0,2.4493,2.4493,2.4532,2.4532,2.4532,2.4548,2.4548,2.4548,2.4538,2.4537,2.4537,2.4536,2.4552,2.4553,2.4554,0,0,0,0,0,0,0,0,0,0,0,0,0,2.4509,2.4494,2.4532,2.4529,2.4529,2.4548,2.4548,2.4549,2.4538,2.4537,2.4537,2.4536,2.4552,2.4553,2.4555,2.4577,0,0,2.4559,2.4559,0,0,0,0,0,0,0,0,2.4508,2.4511,2.4529,2.4529,2.4529,2.454,2.454,2.4558,2.4538,2.4535,2.4537,2.4536,2.4549,2.4551,2.4555,2.4578,2.4579,2.4559,2.4559,2.456,2.456,0,0,0,0,0,0,0,2.4507,2.451,2.4538,2.453,2.453,2.4527,2.4529,2.4544,2.4546,2.4535,2.4534,2.4536,2.4549,2.4554,2.4555,2.4579,2.4559,2.456,2.4561,2.4561,2.4622,2.4622,0,0,0,0,0,0,2.4506,2.4509,2.4538,2.4539,2.4517,2.4528,2.453,2.4537,2.4546,2.4546,2.4537,2.4536,2.4552,2.4554,2.4556,2.4583,2.456,2.4561,2.4562,2.4621,2.4622,2.4623,0,0,0,0,0,0,2.4505,2.4509,2.4537,2.4524,2.4527,2.453,2.4538,2.4538,2.4543,2.4547,2.4547,2.4542,2.4552,2.4554,2.4572,2.4583,2.4562,2.4563,2.462,2.4621,2.4622,2.4637,0,0,0,0,0,0,2.4504,2.4509,2.4517,2.4524,2.4528,2.4553,2.4539,2.4539,2.4545,2.4544,2.4551,2.4552,2.4551,2.457,2.4573,2.4585,2.4564,2.4619,2.462,2.4622,2.4636,2.4639,2.4641,0,0,0,0,0,2.4503,2.452,2.4517,2.4521,2.4538,2.4553,2.4556,2.4554,2.4546,2.4555,2.4558,2.4552,2.4582,2.4572,2.4576,2.4588,2.4618,2.462,2.4622,2.4634,2.4638,2.4641,0,0,0,0,0,0,2.4514,2.4521,2.4518,2.4538,2.4545,2.4552,2.4562,2.4558,2.4568,2.4566,2.4564,2.4566,2.4585,2.4588,2.4577,2.461,2.4599,2.4601,2.4607,2.4611,2.4614,2.4612,2.4565,0,0,0,0,0,2.4519,2.4531,2.4536,2.4553,2.4557,2.4559,2.4566,2.4565,2.4572,2.4575,2.4579,2.4586,2.4597,2.4604,2.4615,2.4637,2.4638,2.4647,2.465,2.4652,2.4654,2.4666,2.467,2.4629,2.4629,2.4629,0,0,2.4529,2.4534,2.4542,2.4556,2.4561,2.4573,2.4562,2.4575,2.4584,2.4577,2.4594,2.4597,2.4605,2.4625,2.4634,2.4629,2.4666,2.4654,2.4656,2.4657,2.4668,2.4672,2.4676,2.463,2.463,2.463,0,0,2.4553,2.4558,2.4573,2.4579,2.4588,2.459,2.4593,2.4601,2.4603,2.462,2.4615,2.4626,2.4645,2.4651,2.4657,2.4685,2.468,2.4689,2.4703,2.4715,2.4718,2.4721,2.4731,2.4735,2.4691,2.4691,2.4691,0,2.4564,2.4582,2.4582,2.4595,2.4602,2.4597,2.4612,2.4618,2.4629,2.4634,2.4628,2.4653,2.4658,2.4679,2.4686,2.4691,2.4695,2.4687,2.4718,2.4721,2.4724,2.4733,2.4737,2.4692,2.4692,2.4692,2.4692,0,2.4595,2.4608,2.4619,2.4631,2.4639,2.4654,2.4656,2.4664,2.4662,2.4665,2.4683,2.4689,2.4701,2.4706,2.4705,2.4728,2.4724,2.4718,2.4706,2.4728,2.4737,2.4741,2.4693,2.4693,2.4693,2.4692,0,0,2.4625,2.4637,2.4641,2.4647,2.4657,2.4667,2.4682,2.4694,2.4701,2.471,2.4722,2.4739,2.4734,2.474,2.474,2.475,2.4772,2.4743,2.4743,2.4748,2.4798,2.4802,2.4806,2.477,2.477,2.4771,2.4798,0,2.4649,2.4675,2.4676,2.4699,2.4711,2.4707,2.472,2.4728,2.4731,2.4742,2.4745,2.4757,2.4749,2.4753,2.4764,2.4767,2.4782,2.4766,2.4781,2.4781,2.4778,2.4811,2.4815,2.484,2.4801,2.4802,2.4802,0,2.468,2.4691,2.4715,2.4724,2.473,2.4741,2.4753,2.4763,2.4772,2.4774,2.4782,2.478,2.4795,2.4784,2.4806,2.4794,2.4801,2.4804,2.4805,2.4805,2.4792,2.4812,2.4847,2.4851,2.4808,2.4807,2.4807,0,2.4699,2.4719,2.4737,2.4742,2.4753,2.4761,2.4766,2.4774,2.4782,2.4792,2.4797,2.4809,2.4816,2.4825,2.4827,2.4819,2.4848,2.4837,2.485,2.485,2.4855,2.4854,2.4892,2.4861,2.4861,2.4861,2.4861,0,2.4725,2.4741,2.4745,2.4756,2.4773,2.4774,2.4791,2.4796,2.4804,2.4815,2.4813,2.4824,2.4826,2.4838,2.4839,2.4857,2.486,2.4862,2.4861,2.4861,2.4861,2.4864,2.4862,2.4862,2.4862,2.4861,2.4861,0,2.4748,2.4752,2.4771,2.478,2.4783,2.4795,2.4804,2.4814,2.4818,2.4832,2.4836,2.4841,2.4855,2.4858,2.4874,2.4876,2.4896,2.4895,2.4893,2.4892,2.4905,2.4903,2.4945,2.495,2.4917,2.4917,2.4917,0,2.4764,2.4776,2.4787,2.4795,2.48,2.4813,2.4821,2.4823,2.4832,2.4844,2.4853,2.4866,2.4877,2.4899,2.4905,2.4917,2.4916,2.493,2.4918,2.4917,2.4915,2.4914,2.4915,2.4931,2.4932,2.4932,2.4932,0,2.4792,2.4794,2.4805,2.4818,2.4828,2.4837,2.4847,2.4854,2.4857,2.4867,2.4881,2.489,2.4907,2.492,2.4933,2.4939,2.4936,2.4936,2.494,2.4939,2.4937,2.4938,2.4898,2.4935,2.4935,2.4934,2.4934,2.4934,2.4812,2.4822,2.4832,2.4845,2.4852,2.4862,2.4872,2.4877,2.4889,2.4903,2.4904,2.492,2.493,2.4947,2.4953,2.4966,2.4961,2.4966,2.4968,2.4968,2.4969,2.4936,2.4968,2.4968,2.4968,2.4968,2.4968,0,2.4839,2.4845,2.4857,2.4871,2.4882,2.4879,2.489,2.4899,2.4913,2.4922,2.4933,2.495,2.4964,2.4971,2.4984,2.4993,2.4992,2.4996,2.4995,2.4996,2.4973,2.4968,2.4997,2.4997,2.4997,2.4997,2.4997,2.4997,2.4854,2.4872,2.4875,2.4896,2.4903,2.4918,2.4924,2.4933,2.4941,2.4959,2.4971,2.4976,2.4984,2.4999,2.5011,2.5013,2.5018,2.5022,2.5024,2.5001,2.4998,2.4995,2.4991,2.5024,2.5024,2.5046,2.5046,2.5046]},{"header":{"parameterUnit":"m.s-1","parameterCategory":1,"la1":30.2991,"la2":30.254,"lo1":-89.0895,"lo2":-89.0444,"dy":0.0017,"dx":0.0017,"nx":28,"ny":28,"refTime":"2024-03-09T09:00:00:Z","depth":0,"parameterNumber":3,"parameterNumberName":"V-component_of_WINDS"},"data":[0,0,0,0,0,0,0,0,0,0,0,0,0,0,0,0,0,0,0,0,0,0,0,0,0,0,0,0,0,0,0,0,0,0,0,0,0,0,0,0,0,0,0,0,0,0,0,0,0,0,0,0,0,0,0,0,0,0,-6.8597,-6.8599,0,-6.8764,-6.8766,-6.8768,-6.8728,-6.8725,-6.8721,-6.8718,-6.8885,-6.8893,-6.89,0,0,0,0,0,0,0,0,0,0,0,0,0,-6.8241,-6.8248,-6.8597,-6.8599,-6.8601,-6.8764,-6.8766,-6.8769,-6.8728,-6.8724,-6.8721,-6.8717,-6.8883,-6.8892,-6.8901,0,0,0,0,0,0,0,0,0,0,0,0,0,-6.8401,-6.825,-6.8597,-6.8601,-6.8603,-6.8764,-6.8766,-6.8769,-6.8729,-6.8724,-6.8719,-6.8715,-6.888,-6.8891,-6.8902,-6.9067,0,0,-6.8936,-6.8941,0,0,0,0,0,0,0,0,-6.8392,-6.8414,-6.8598,-6.8601,-6.8604,-6.872,-6.8702,-6.8869,-6.873,-6.8681,-6.8718,-6.8713,-6.8834,-6.8849,-6.8891,-6.9075,-6.9082,-6.8937,-6.8944,-6.8949,-6.8952,0,0,0,0,0,0,0,-6.8381,-6.8406,-6.8663,-6.8601,-6.8604,-6.8594,-6.8611,-6.8733,-6.8783,-6.8685,-6.8683,-6.8703,-6.8835,-6.888,-6.8894,-6.9085,-6.8937,-6.8947,-6.8954,-6.8958,-6.9415,-6.942,0,0,0,0,0,0,-6.8368,-6.8397,-6.8658,-6.8668,-6.8484,-6.8604,-6.8623,-6.8688,-6.8781,-6.8791,-6.8707,-6.8701,-6.8863,-6.8881,-6.89,-6.9101,-6.8949,-6.8959,-6.8965,-6.9409,-6.9416,-6.9422,0,0,0,0,0,0,-6.836,-6.8391,-6.8651,-6.8532,-6.8565,-6.8615,-6.8688,-6.8694,-6.8739,-6.8798,-6.8806,-6.8745,-6.886,-6.8884,-6.9027,-6.9106,-6.8964,-6.8974,-6.9403,-6.9411,-6.9419,-6.9504,0,0,0,0,0,0,-6.835,-6.8389,-6.8453,-6.8534,-6.8571,-6.8776,-6.8693,-6.87,-6.8759,-6.8752,-6.8835,-6.8844,-6.8858,-6.901,-6.9038,-6.9119,-6.8983,-6.9396,-6.9407,-6.9416,-6.9494,-6.9514,-6.953,0,0,0,0,0,-6.8338,-6.8469,-6.8456,-6.8488,-6.8652,-6.8781,-6.8802,-6.8816,-6.8765,-6.883,-6.8868,-6.8842,-6.9093,-6.9025,-6.9056,-6.9141,-6.9391,-6.9404,-6.9416,-6.9486,-6.951,-6.953,0,0,0,0,0,0,-6.8394,-6.8479,-6.8466,-6.8628,-6.8698,-6.8774,-6.8855,-6.8841,-6.8926,-6.8916,-6.8929,-6.8948,-6.9094,-6.9131,-6.9055,-6.9307,-6.9234,-6.9253,-6.9277,-6.9301,-6.9318,-6.9306,-6.8992,0,0,0,0,0,-6.8426,-6.8524,-6.8593,-6.8729,-6.8764,-6.8804,-6.8861,-6.8866,-6.8938,-6.8967,-6.9015,-6.9085,-6.918,-6.9242,-6.9333,-6.9499,-6.9517,-6.9573,-6.9591,-6.9606,-6.9622,-6.9714,-6.974,-6.9462,-6.9462,-6.9462,0,0,-6.8491,-6.855,-6.8611,-6.8742,-6.8796,-6.8897,-6.8829,-6.8938,-6.9013,-6.8983,-6.9121,-6.916,-6.9238,-6.9394,-6.9465,-6.943,-6.9703,-6.9622,-6.9633,-6.9641,-6.9729,-6.9756,-6.9779,-6.947,-6.9469,-6.9468,0,0,-6.8663,-6.8717,-6.8837,-6.8893,-6.8978,-6.9003,-6.9032,-6.9111,-6.9136,-6.9275,-6.9255,-6.9344,-6.9506,-6.9564,-6.9615,-6.981,-6.9789,-6.9839,-6.9934,-7.0023,-7.0045,-7.0065,-7.0135,-7.016,-6.9855,-6.9855,-6.9855,0,-6.8733,-6.8886,-6.89,-6.9012,-6.907,-6.9049,-6.9171,-6.9224,-6.9333,-6.9374,-6.9333,-6.9539,-6.959,-6.9759,-6.9807,-6.9849,-6.9882,-6.9829,-7.0041,-7.0061,-7.0079,-7.0147,-7.0173,-6.986,-6.986,-6.9859,-6.9859,0,-6.8969,-6.9075,-6.9161,-6.9269,-6.9337,-6.9453,-6.9485,-6.9551,-6.9551,-6.9581,-6.9723,-6.9785,-6.9888,-6.9928,-6.9928,-7.0098,-7.0074,-7.0038,-6.9965,-7.0111,-7.0175,-7.02,-6.9868,-6.9866,-6.9865,-6.9863,0,0,-6.918,-6.9295,-6.9327,-6.9376,-6.9468,-6.955,-6.9665,-6.9768,-6.9825,-6.9901,-6.9998,-7.0137,-7.0105,-7.0162,-7.0168,-7.0247,-7.0399,-7.0201,-7.0203,-7.0236,-7.0591,-7.0618,-7.0648,-7.0385,-7.039,-7.0394,-7.0584,0,-6.936,-6.9565,-6.9582,-6.9766,-6.9864,-6.9846,-6.9947,-7.0014,-7.0045,-7.0132,-7.0166,-7.0265,-7.0214,-7.0249,-7.0326,-7.0364,-7.047,-7.035,-7.0476,-7.048,-7.0457,-7.0681,-7.071,-7.0886,-7.0609,-7.0613,-7.0616,0,-6.9598,-6.9683,-6.9878,-6.9957,-6.9999,-7.0089,-7.0185,-7.0269,-7.0345,-7.0362,-7.0427,-7.0423,-7.0541,-7.0464,-7.0627,-7.0546,-7.0598,-7.0624,-7.0631,-7.0644,-7.0557,-7.07,-7.0943,-7.097,-7.0655,-7.0652,-7.0649,0,-6.9734,-6.9897,-7.0035,-7.0077,-7.0173,-7.0237,-7.028,-7.0351,-7.0412,-7.0495,-7.0535,-7.063,-7.0683,-7.0756,-7.0778,-7.072,-7.0941,-7.0865,-7.0958,-7.0958,-7.1006,-7.1003,-7.1261,-7.1038,-7.1038,-7.1037,-7.1037,0,-6.9934,-7.0053,-7.0097,-7.0182,-7.0316,-7.0334,-7.0465,-7.0504,-7.0568,-7.0659,-7.0649,-7.0735,-7.0758,-7.0848,-7.0865,-7.0998,-7.1022,-7.1039,-7.1042,-7.104,-7.1038,-7.1075,-7.1063,-7.1044,-7.1043,-7.1042,-7.104,0,-7.0108,-7.0142,-7.0291,-7.0371,-7.0393,-7.0489,-7.0556,-7.0638,-7.0667,-7.0784,-7.0812,-7.0859,-7.0965,-7.0994,-7.1119,-7.1131,-7.1288,-7.1279,-7.1263,-7.1263,-7.1355,-7.1346,-7.1646,-7.1687,-7.1437,-7.1439,-7.1441,0,-7.0234,-7.0326,-7.0416,-7.0477,-7.0523,-7.0622,-7.0685,-7.0706,-7.0772,-7.0866,-7.0936,-7.1041,-7.1126,-7.1295,-7.134,-7.1436,-7.143,-7.1529,-7.1445,-7.1441,-7.1433,-7.1428,-7.1437,-7.1545,-7.1548,-7.155,-7.1552,0,-7.0453,-7.0466,-7.0558,-7.0657,-7.0732,-7.081,-7.0885,-7.0936,-7.0967,-7.1042,-7.1151,-7.1217,-7.1347,-7.1451,-7.1549,-7.1591,-7.1578,-7.1578,-7.1605,-7.1604,-7.1591,-7.1601,-7.1307,-7.1571,-7.1569,-7.1568,-7.1567,-7.1566,-7.0608,-7.069,-7.0766,-7.0869,-7.0928,-7.0999,-7.108,-7.1121,-7.1213,-7.1321,-7.1328,-7.1446,-7.152,-7.1651,-7.1699,-7.1791,-7.1762,-7.18,-7.181,-7.182,-7.1828,-7.1577,-7.1809,-7.1808,-7.1808,-7.1807,-7.1807,0,-7.0828,-7.0877,-7.0972,-7.1078,-7.1159,-7.114,-7.1222,-7.1291,-7.1396,-7.1467,-7.1551,-7.1677,-7.1778,-7.1831,-7.1932,-7.1996,-7.1992,-7.2021,-7.2017,-7.2028,-7.1848,-7.1815,-7.2023,-7.2023,-7.2023,-7.2023,-7.2023,-7.2023,-7.0952,-7.109,-7.1112,-7.1279,-7.1326,-7.1444,-7.1492,-7.1557,-7.1614,-7.1756,-7.1841,-7.1875,-7.1939,-7.2045,-7.2137,-7.215,-7.2187,-7.2221,-7.2231,-7.2062,-7.204,-7.2019,-7.1988,-7.2229,-7.2229,-7.2402,-7.2404,-7.2405]}]]